星链-4515 (STARLINK-4515 )

导读

STARLINK-4515是美国太空探索技术公司(SpaceX)星链(Starlink)互联网卫星星座的一员,由美国于2022年8月10日发射升空。该卫星主要为全球范围内提供低延迟、高速率的卫星互联网服务,尤其服务于偏远地区及网络基础设施薄弱区域,是星链全球卫星网络部署的重要组成部分。

基本信息
目录编号:
53397
目录名称:
STARLINK-4515
国际标识:
2022-097K
轨道中心:
EARTH
卫星名称:
星链-4515
卫星全名:
星链-4515 (STARLINK-4515 )
卫星状态:
在轨 (已飞行1407 天)
发射日期:
2022-08-10 UTC
国别 :
美国 (US)
星等 :
--
轨道信息
数据来源 国际轨道数据 AOE轨道数据
星历时间 2026-06-17T06:12:25+0800
11小时前
查看轨道信息
2026-06-14T23:00:00+0800
2天前
查看轨道信息
半长轴 6917.9km 6917.895km
偏心率 0.0001272 0.0001208
轨道倾角 53.160° 53.161°
近地点辐角 91.877° 104.064°
升交点赤经 38.538° 48.882°
平近点角 268.236° 354.478°
近地点 538.883km 538.922km
远地点 540.643km 540.594km
周期 95.438分钟 95.438分钟
每日圈数 15.088337 15.088353
详细信息
固有亮度:
5
最大亮度:
2.5
卫星平台:
Starlink v1.5
覆盖范围:
全球
运营商:
太空探索技术公司
运营商所在国:
美国
制造商(研发单位):
太空探索技术公司
制造商所在国:
美国
使用方式:
暂无
卫星简介
星链(Starlink)计划是由太空探索技术公司(SpaceX)提出的一个巨型低轨卫星互联网星座项目,计划在2019年至2024年间在太空搭建由约1.2万颗卫星组成的“星链”网络,其中1584颗将部署在地球上空550千米处的近地轨道,并从2020年开始工作。该卫星仍在工作。
2D轨道图
3D轨道图
轨道高度分析图
轨道倾角分析图
轨道综合分析图
查看轨道综合分析图